COSMOS 2251 DEB, 37530

Orbit data source: Space-Track

COSMOS 2251 DEB, 37530 is space debris in LEO originally from a launch on Wed, 16 Jun 1993 UTC launched from the Plesetsk Missile And Space Complex (PKMTR). The debris from Iridium 33, an American commercial communications satellite, has been tracked extensively since its accidental collision with the defunct Russian satellite Cosmos 2251 in 2009. This event, occurring at high speed in low Earth orbit (LEO), generated thousands of pieces of space debris, significantly increasing the risk of further collisions. The Iridium 33 debris cloud has impacted space traffic management and orbital debris mitigation strategies, making it a subject of ongoing study in space situational awareness.

Loading next visibility...
Identifier
37530, 1993-036BNK
Orbit
LEO
Country
Flag of CISCIS
Related business
Manufacturer
Unknown
Mission
Spacecraft
Bus & Motor
Unknown
Mass
Unknown
Launch date (UTC)
1993-06-16 (33 years ago)
Launch vehicle
Unknown
Launch site
Plesetsk Missile And Space Complex (PKMTR)
Object type
Payload
Rocket body
Debris
Shape & HBR
Unknown shape, 0.1 m
Radar Cross Section
Small (<0.1 m²)

Expand to show TLE details & history
Last TLE update: 3 days ago

TLE from 3 days ago
0 COSMOS 2251 DEB
1 37530U 93036BNK 26060.05493377  .00000697  00000-0  25487-3 0  9992
2 37530  74.0309 190.1826 0027237 236.3663 244.4638 14.34620892863557
Epoch: 2026-03-01T01:19Z
TLE epoch observation values (Epoch: 2026-03-01T01:19:06.277Z)
Latitude
55.99805°
Longitude
166.5794°
Altitude
793.748 km
Speed
7.458 km/s
True Right ascension
23h 00m 53s
True Declination
55° 50' 21"
Sunlit
Object was in daylight at epoch
Visualization orbit readout
Latitude
Unknown
Longitude
Unknown
Altitude
Unknown
Speed
Unknown
Apparent Right ascension
Unknown
Apparent Declination
Unknown
Sunlit
N/A
Visualization observer readout
Local Sidereal Time
18:11:57
Azimuth
Unknown
Elevation
Unknown
Doppler factor
Unknown
Orbital elements
Apogee altitude
793.433 km
Perigee altitude
754.472 km
Semi-major axis
7,152.089 km
Eccentricity
0.00272
Inclination
74.0309°
RAAN
190.1826°
Arg. of periapsis
236.3663°
True anomaly
244.18259°
Mean anomaly
244.4638°
Eccentric anomaly
244.32315°
Mean motion
3.58834 °/min
Orbital period
100.32 mins
BSTAR
0.00025487
Loading maneuver chart data...
Computing Atmospheric mass density...

Documentation

Showing up to 5 results
|